Theta_e
300 304 305 305 307 307 305 305 307 307 308 308 310 310 310 309 307 306 305 304 305 302
295 296 297 299 300 301 302 303 301 302 301 302 302 302 301 300 298 297 297 296 296 295
292 293 293 294 293 294 296 297 297 297 297 296 297 298 297 295 295 294 294 293 292 291
290 290 291 290 290 290 291 292 293 293 292 292 292 293 291 290 290 289 288 288 287 285
287 287 287 287 287 288 288 289 289 289 288 288 288 288 287 285 285 285 284 284 284 283
285 285 284 285 285 286 286 286 286 286 285 285 285 284 284 283 283 282 282 282 281 281
283 283 283 283 284 284 285 285 284 284 283 283 283 283 283 282 282 282 282 282 282 281
282 282 282 282 282 283 283 284 284 284 284 284 283 282 282 281 281 280 280 280 281 281
281 281 281 281 281 281 281 282 282 282 283 283 283 285 284 282 280 280 279 278 278 279
279 279 279 279 279 279 279 280 280 280 281 281 283 284 283 282 280 279 279 279 278 277
277 277 277 278 278 278 279 279 279 279 280 280 281 283 282 281 279 279 278 279 279 279
277 276 276 276 276 277 277 278 278 278 279 279 280 282 281 279 278 277 277 278 279 279
276 276 275 275 275 276 277 277 277 277 277 277 279 282 281 279 278 276 276 277 277 280
275 275 275 275 275 275 275 275 275 274 275 275 276 279 281 280 278 277 276 275 275 277
Wind_Speed
7 5 5 6 4 3 4 4 4 5 6 6 5 5 5 5 5 5 5 8 7 5
8 8 6 7 7 5 5 5 6 7 6 7 6 7 7 6 7 8 7 8 9 6
8 8 7 7 8 8 7 7 8 8 7 9 9 8 9 8 7 9 7 6 9 7
8 8 8 8 8 8 7 8 8 8 10 8 9 8 8 11 10 11 9 8 9 10
9 9 9 9 9 8 8 9 9 9 11 10 10 10 10 11 9 11 10 9 10 9
9 9 9 9 8 9 9 9 10 10 11 11 11 11 11 11 12 12 11 11 10 10
9 9 9 9 9 9 9 10 10 10 11 10 10 11 11 10 12 12 11 12 12 11
7 8 8 9 9 9 10 9 9 10 10 10 9 7 10 11 12 12 12 11 11 11
7 8 8 8 9 9 9 9 9 10 9 10 8 16 16 11 10 10 10 10 9 9
7 8 7 7 8 8 9 8 9 9 9 10 10 16 16 15 9 9 8 8 7 7
5 6 5 6 7 7 7 8 7 8 8 8 9 15 15 15 10 9 9 8 7 7
4 5 5 6 5 5 6 7 6 6 6 7 6 12 12 10 8 8 7 6 6 5
4 5 5 5 5 3 4 6 5 7 5 6 5 9 9 7 5 6 5 4 4 5
4 5 4 4 3 3 4 5 5 6 4 5 4 5 7 6 4 4 4 3 2 2
Wind_Direction
32 37 38 31 48 67 87 85 71 68 63 64 66 75 77 72 72 43 55 58 59 61
36 40 52 50 45 44 51 71 68 63 72 62 64 69 72 75 77 70 64 73 71 67
43 46 46 57 57 53 40 62 67 68 62 63 67 74 88 78 73 76 62 54 77 62
48 51 56 57 59 57 51 45 69 69 68 64 63 67 83 80 70 79 74 64 69 66
55 53 56 56 50 57 56 61 59 72 73 71 67 63 68 77 73 76 72 66 67 61
58 58 60 59 56 57 61 64 61 67 70 67 68 72 68 76 76 73 68 66 68 62
63 67 64 62 61 61 62 68 68 65 72 72 76 79 80 79 79 77 72 67 65 65
70 72 72 67 62 61 63 65 70 76 73 76 77 77 86 86 87 86 81 70 66 58
79 74 72 73 75 74 70 68 71 70 76 79 78 87 89 91 92 89 88 84 75 68
84 83 72 78 83 81 78 78 73 73 77 77 83 89 89 86 86 90 90 93 93 87
80 87 80 76 74 74 74 77 80 77 77 85 87 93 94 93 92 91 87 85 89 95
95 96 94 89 85 72 80 73 70 71 73 83 89 102 109 108 102 98 92 84 72 71
116 102 98 103 94 78 83 90 89 83 63 58 73 93 101 107 115 116 114 95 65 75
104 117 121 113 99 118 112 107 94 92 66 68 49 88 98 105 113 129 130 123 94 26